Simultaneous Nadir Overpasses (SNOs) Predictions

Prediction of SNOs between AQUA and METOP-A Satellite Orbit:

Table of predicted SNOs for the next 14.0 days since TLE Epoch: 3/13/2020
Index Date (AQUA) Time (AQUA) Lat,Lon (AQUA) SZA (AQUA ) Date (METOP-A) Time (METOP-A) Lat,Lon (METOP-A) SZA (METOP-A ) Distance(km) Time Diff (sec)
1 03/15/2020 06:21:46 75.97, 73.44 78.21 03/15/2020 06:20:49 75.97, 73.37 78.22 1.96 57
2 03/15/2020 07:11:13 -76.02,-119.07 101.76 03/15/2020 07:11:29 -76.03,-119.08 101.74 1.50 16
3 03/15/2020 08:00:52 76.59, 46.70 78.91 03/15/2020 08:01:56 76.64, 50.36 78.74 94.51 64
4 03/18/2020 01:56:03 76.01, 139.74 77.14 03/18/2020 01:55:11 76.01, 139.87 77.14 3.47 52
5 03/18/2020 02:45:30 -76.06, -52.77 102.83 03/18/2020 02:45:52 -76.03, -52.73 102.86 3.46 22
6 03/20/2020 21:30:18 76.01,-153.82 76.01 03/20/2020 21:29:33 76.01,-153.78 76.02 1.25 45
7 03/20/2020 22:19:45 -76.06, 13.67 103.95 03/20/2020 22:20:14 -76.03, 13.63 103.98 3.49 29
8 03/23/2020 17:04:34 76.02, -87.40 74.90 03/23/2020 17:03:56 76.00, -87.44 74.89 2.13 38
9 03/23/2020 17:54:01 -76.07, 80.08 105.06 03/23/2020 17:54:36 -76.08, 80.13 105.06 1.76 35
10 03/26/2020 12:38:50 76.03, -21.00 73.80 03/26/2020 12:38:18 76.05, -20.95 73.82 2.08 32
11 03/26/2020 13:28:17 -76.08, 146.48 106.16 03/26/2020 13:28:59 -76.08, 146.48 106.18 0.53 42




NCC Satellite Simultaneous Nadir Overpasses (SNOs) Prediction Service
